{"data":{"norad_id":68316,"epoch":"2026-09-19T14:48:41.795424Z","epoch_age_seconds":124694,"freshness":"FRESH","line1":"1 68316U 26057Y   26262.61715041  .00016563  00000+0  51412-3 0  9993","line2":"2 68316  97.2853  27.9555 0001639  99.8477 260.2951 15.33451949 28375","mean_motion":15.33451949,"eccentricity":0.0001639,"inclination_deg":97.2853,"raan_deg":27.9555,"arg_perigee_deg":99.8477,"mean_anomaly_deg":260.2951,"bstar":0.00051412,"rev_number":2837,"period_min":93.905779110918,"perigee_km":464.40082342932,"apogee_km":466.64417501317,"semimajor_km":6843.6594992212,"source":"CELESTRAK","updated_at":"2026-09-20T09:00:43.881487Z"}}